| time (UTC) | temp F | wind direction | speed knots | gust knots | rain 1hr in | rain 24hr in | rain mn in | humidity % | barometer mb |
| 20260503224501 | 69 | 242 | 3.5 | 12.2 | 0.00 | 0.00 | 0.00 | 40 | 1005.8 |
| 20260503223053 | 69 | 211 | 4.3 | 11.3 | 0.00 | 0.00 | 0.00 | 39 | 1006.0 |
| 20260503221551 | 69 | 213 | 1.7 | 7.0 | 0.00 | 0.00 | 0.00 | 41 | 1006.0 |
| 20260503220053 | 69 | 270 | 1.7 | 7.8 | 0.00 | 0.00 | 0.00 | 41 | 1006.0 |
| 20260503214556 | 68 | 196 | 2.6 | 5.2 | 0.00 | 0.00 | 0.00 | 42 | 1006.1 |
| 20260503213003 | 68 | 251 | 2.6 | 8.7 | 0.00 | 0.00 | 0.00 | 42 | 1006.1 |
| 20260503211508 | 67 | 176 | 3.5 | 9.6 | 0.00 | 0.00 | 0.00 | 43 | 1006.2 |
| 20260503210012 | 67 | 237 | 3.5 | 7.8 | 0.00 | 0.00 | 0.00 | 43 | 1006.5 |
| 20260503204517 | 66 | 202 | 3.5 | 8.7 | 0.00 | 0.00 | 0.00 | 44 | 1006.8 |
| 20260503203009 | 66 | 200 | 6.1 | 13.9 | 0.00 | 0.00 | 0.00 | 41 | 1007.0 |
| 20260503201553 | 65 | 267 | 3.5 | 11.3 | 0.00 | 0.00 | 0.00 | 44 | 1007.3 |
| 20260503200101 | 65 | 195 | 4.3 | 13.0 | 0.00 | 0.00 | 0.00 | 43 | 1007.4 |
| 20260503194602 | 65 | 234 | 4.3 | 13.9 | 0.00 | 0.00 | 0.00 | 43 | 1007.9 |
| 20260503193102 | 65 | 238 | 2.6 | 20.0 | 0.00 | 0.00 | 0.00 | 43 | 1008.0 |
| 20260503191606 | 64 | 197 | 3.5 | 19.1 | 0.00 | 0.00 | 0.00 | 45 | 1008.1 |
| 20260503184631 | 63 | 208 | 7.8 | 16.5 | 0.00 | 0.00 | 0.00 | 46 | 1008.5 |
| 20260503184504 | 63 | 204 | 7.0 | 16.5 | 0.00 | 0.00 | 0.00 | 45 | 1008.5 |
| 20260503183007 | 62 | 204 | 4.3 | 13.0 | 0.00 | 0.00 | 0.00 | 47 | 1008.5 |
| 20260503181512 | 62 | 194 | 4.3 | 13.0 | 0.00 | 0.00 | 0.00 | 46 | 1008.8 |
| 20260503180011 | 63 | 155 | 6.1 | 16.5 | 0.00 | 0.00 | 0.00 | 47 | 1008.9 |
| 20260503174544 | 62 | 185 | 4.3 | 13.9 | 0.00 | 0.00 | 0.00 | 47 | 1009.1 |
| 20260503173036 | 61 | 244 | 3.5 | 13.9 | 0.00 | 0.00 | 0.00 | 47 | 1009.3 |
| 20260503171535 | 60 | 200 | 5.2 | 12.2 | 0.00 | 0.00 | 0.00 | 49 | 1009.5 |
| 20260502233056 | 58 | 247 | 5.2 | 8.7 | 0.00 | 0.00 | 0.00 | 33 | 1016.8 |
| 20260502231519 | 57 | 257 | 3.5 | 13.0 | 0.00 | 0.00 | 0.00 | 33 | 1017.1 |
| 20260502230046 | 58 | 259 | 1.7 | 10.4 | 0.00 | 0.00 | 0.00 | 33 | 1017.2 |